Back to catalog

BEIDOU 11

AliveNavigationGEO
NORAD 38091·PAYLOAD·🇨🇳 China

Launched Feb 24, 2012 from Xichang Satellite Launch Center

Loading…

TLE

FreshSource: Space-Track

Epoch: Sep 14, 2026, 14:04 UTC

1 38091U 12008A   26257.58671440  .00000050  00000-0  00000-0 0  9994
2 38091   3.7918  69.0513 0006764 240.3109 314.1309  1.00268706 53264

Track BEIDOU 11 in real time with AllMySat

Download on the App Store